Wind_Speed
20 20 20 20 20 20 20 19 19 18 17 17 16 16 16 16 16 16 15 13 12 13 15 16 18 21 21 23 24 25 27 29 29 23 19 23 24 21 18 18 19 18 14 13 14 10 8 9 11 16 13 8 6 5 8 8 5 5 4 6 7 7 7 7 8 7 6 8 10 7 5 5 3 2 3 3 5 3 2 5 8 10 9 14 19 31 37 35
20 20 20 20 20 20 20 20 20 19 18 18 17 16 16 16 16 16 16 15 14 13 14 16 18 19 21 23 24 26 28 28 25 23 26 26 23 22 22 22 23 20 13 10 12 11 8 7 9 12 8 4 5 6 7 6 6 6 4 6 8 7 7 8 9 11 9 11 11 3 3 2 3 3 0 2 3 4 2 6 12 14 12 16 22 29 32 34
19 20 20 20 20 20 20 20 20 19 19 19 18 17 17 16 16 16 16 17 16 14 13 15 17 18 20 23 24 26 27 25 18 17 23 20 18 22 23 23 23 19 15 13 12 12 12 10 11 11 6 5 5 7 8 6 7 7 5 6 8 8 8 10 12 14 11 14 12 1 5 5 6 6 3 2 3 3 5 8 11 13 13 16 18 21 26 29
19 19 19 20 19 19 20 20 20 19 19 19 19 18 17 16 16 16 16 17 16 15 14 13 16 17 19 22 24 25 23 17 8 7 12 11 7 13 21 26 24 20 18 17 14 13 14 14 12 9 7 7 6 8 9 8 6 5 7 8 7 8 10 13 13 14 13 15 12 3 4 2 3 4 4 5 4 2 3 11 15 17 17 17 17 18 21 22
19 19 19 19 19 19 19 19 19 19 19 19 19 19 18 17 16 16 16 16 17 16 15 13 14 16 18 21 22 23 16 7 1 1 3 7 8 1 15 24 24 21 19 17 15 14 15 12 9 7 7 7 7 8 9 11 8 5 9 10 8 8 10 13 14 17 16 15 13 3 5 4 2 2 4 4 3 4 3 10 18 20 21 21 20 19 18 18
20 20 20 20 19 19 19 19 19 19 19 19 19 19 19 18 17 17 16 16 17 17 15 13 13 14 16 19 22 19 8 3 3 4 5 8 8 5 7 16 21 21 17 14 13 12 11 10 7 5 5 7 10 10 9 11 11 7 8 10 12 12 10 11 13 17 15 12 12 7 1 3 4 1 4 5 4 4 4 9 19 18 20 22 21 19 18 18
21 21 21 21 20 20 20 20 19 19 19 19 19 19 19 19 18 17 16 16 16 17 15 14 15 13 15 18 18 13 7 10 15 6 8 14 9 7 4 8 14 17 16 14 13 11 9 10 9 6 6 7 10 11 11 11 13 11 8 9 12 14 14 14 14 14 12 11 8 2 4 5 3 1 4 3 1 3 4 10 18 15 15 16 16 17 17 16
21 21 21 21 21 21 21 20 20 19 19 18 18 18 19 19 19 18 17 17 16 16 15 14 15 12 13 14 12 8 6 18 31 21 17 17 10 7 5 6 8 13 16 17 15 12 10 11 10 8 7 8 8 10 12 12 13 13 11 10 10 11 13 15 18 15 13 11 6 2 5 4 3 4 6 5 4 3 6 14 16 14 14 12 9 8 8 10
20 20 21 21 21 21 21 21 21 20 19 19 18 18 18 18 19 19 18 17 16 16 15 15 16 12 11 11 9 8 12 25 34 26 16 11 10 9 8 8 9 13 14 17 17 14 10 9 10 9 7 7 9 11 12 11 10 12 13 11 10 11 12 14 17 16 14 10 5 1 1 3 5 6 6 3 3 6 14 16 14 13 12 11 12 12 9 7
21 20 20 20 21 21 21 21 21 21 20 20 18 17 18 18 18 19 18 18 17 16 16 15 16 14 11 12 10 9 16 25 26 20 12 13 17 13 12 12 13 16 15 15 16 16 11 9 9 9 8 8 8 10 12 11 7 9 13 14 13 12 11 12 14 13 12 8 6 5 3 3 4 5 3 2 2 8 16 15 14 14 12 13 13 11 9 6
22 22 21 21 20 21 21 21 21 21 21 21 20 18 18 19 18 19 19 18 18 16 16 16 16 15 13 12 9 10 16 20 23 23 20 22 26 20 14 15 14 15 17 15 17 18 16 15 11 7 6 6 8 8 10 11 9 10 13 14 15 13 12 13 14 12 9 6 9 9 5 4 4 5 5 3 3 11 16 15 16 16 11 10 10 9 9 7
23 23 22 22 21 21 20 21 21 21 21 21 21 20 20 20 20 19 19 19 18 17 16 16 16 15 15 12 11 20 27 29 33 35 31 28 28 25 19 18 18 16 13 10 15 21 21 20 16 10 6 4 5 6 6 10 10 12 12 11 15 15 14 14 14 12 8 5 6 7 3 4 4 5 6 4 10 16 15 13 14 15 13 10 9 8 8 10
23 23 22 22 22 22 21 21 21 21 21 21 21 21 21 21 21 21 20 20 19 18 17 16 16 16 15 9 11 27 36 36 38 37 34 30 26 27 23 20 19 19 17 13 13 18 22 23 19 12 10 7 5 5 6 8 9 11 11 7 8 11 12 14 13 12 10 4 4 6 1 5 6 8 8 4 16 18 13 10 10 10 11 10 9 8 7 8
24 24 23 23 23 23 22 21 21 21 21 22 22 21 22 22 22 22 21 22 20 19 18 17 18 17 14 9 14 31 36 36 38 36 35 30 23 23 23 21 20 19 18 17 19 18 17 22 20 11 10 10 6 7 9 8 7 9 9 7 5 5 6 10 12 13 11 6 6 6 3 5 3 5 5 7 17 18 13 11 10 9 10 10 9 9 9 7
24 24 24 23 23 23 23 23 22 21 22 22 22 22 23 23 23 23 22 22 22 19 18 18 18 13 10 9 16 26 27 29 35 36 34 28 20 19 19 20 20 20 19 19 21 19 16 17 15 9 8 10 9 9 8 6 5 6 7 6 5 4 3 5 10 12 11 6 8 7 4 5 2 2 1 11 17 17 14 11 10 11 11 11 9 9 9 8
24 24 24 23 23 23 23 23 22 22 23 23 24 23 24 24 25 24 23 23 21 19 15 14 15 11 8 9 14 19 18 21 28 30 30 27 22 18 18 19 18 18 19 21 21 17 17 13 8 8 7 9 10 7 5 5 5 5 6 5 5 6 4 4 7 11 13 8 8 10 5 3 4 1 2 10 15 15 12 9 10 12 11 10 8 8 8 7
24 24 24 24 23 23 23 23 22 23 23 24 25 25 26 26 25 24 24 22 20 18 14 12 12 9 9 11 14 16 17 20 23 24 25 26 25 22 19 15 13 14 16 19 20 14 13 9 5 8 7 7 7 6 6 7 6 4 4 4 5 6 6 5 5 8 14 12 9 11 8 3 6 5 4 7 12 14 12 10 10 11 11 9 8 8 8 7
23 23 23 23 23 23 23 23 23 22 23 24 25 25 27 27 25 25 23 18 14 13 13 14 9 6 7 11 13 17 18 18 21 22 22 23 24 24 20 13 10 11 11 12 14 11 8 5 5 6 7 8 8 8 8 7 6 5 5 4 4 5 6 8 7 5 12 16 12 10 9 6 9 7 6 6 9 13 12 9 10 11 11 10 9 9 8 8
24 23 23 23 23 23 23 23 23 22 23 23 23 24 25 23 20 20 18 11 6 5 5 7 7 5 7 9 15 18 17 19 20 20 21 21 23 23 21 16 12 10 9 7 8 10 6 4 5 7 8 10 10 9 8 7 6 7 7 6 5 6 6 8 9 9 11 15 12 10 9 10 11 10 9 6 7 11 10 8 8 9 10 10 9 9 9 9
25 24 24 23 23 23 23 22 22 22 21 21 22 20 16 11 7 5 7 8 8 10 9 6 9 10 13 14 14 15 19 22 15 15 20 21 23 19 15 14 11 9 9 8 8 9 7 6 8 9 9 11 12 11 9 9 10 9 9 8 9 8 7 8 11 13 12 12 13 13 10 10 13 12 12 9 8 10 9 9 8 8 9 8 9 10 10 10
25 25 24 24 24 23 22 22 23 22 20 20 19 13 7 6 5 4 4 5 11 15 17 15 14 13 17 20 20 17 16 20 16 8 16 19 21 17 10 11 11 8 9 10 8 7 7 9 9 9 9 11 13 12 9 11 14 11 8 8 9 9 9 10 11 13 12 9 10 15 11 9 13 12 12 13 11 11 10 10 9 9 9 7 9 10 10 9
26 26 25 24 24 23 23 23 22 23 24 20 14 10 8 11 13 11 10 7 9 13 16 18 18 16 19 27 27 21 13 13 17 15 13 16 15 13 9 11 11 7 10 11 7 8 9 10 9 10 10 10 12 13 11 12 14 11 7 6 6 9 9 10 14 14 10 8 9 15 11 7 12 10 10 11 10 10 10 11 11 11 11 9 10 11 11 10
27 28 27 25 24 24 23 22 24 26 25 17 13 12 13 17 18 16 9 5 9 12 12 14 17 15 17 24 25 19 14 12 14 15 13 14 10 11 11 10 11 9 11 13 9 8 8 8 10 11 10 11 11 13 13 11 10 10 7 5 4 7 8 8 13 13 9 9 9 13 6 6 9 7 6 6 7 9 7 8 9 9 11 11 10 10 11 11
28 27 26 25 26 24 21 24 26 22 18 14 13 13 16 20 20 15 6 3 7 11 13 16 15 12 16 20 17 12 12 11 12 14 14 14 8 10 11 10 12 10 10 15 13 9 7 7 11 12 11 13 12 13 15 10 8 10 9 7 6 8 9 8 9 8 7 8 10 13 6 3 7 9 8 5 6 9 9 9 8 7 8 9 9 9 10 10
29 27 25 26 26 23 23 23 18 14 17 14 8 10 14 15 14 8 2 2 6 7 11 15 11 11 20 22 17 11 10 12 13 14 10 13 11 9 8 8 8 10 12 16 14 9 8 9 13 15 13 14 13 12 15 11 6 8 10 10 10 12 11 10 10 6 5 5 8 15 6 1 2 4 6 7 8 8 9 10 10 9 9 9 10 11 12 11
30 27 26 26 25 24 20 12 10 16 18 9 6 12 13 11 10 6 1 2 5 5 7 10 7 11 18 15 11 10 9 12 15 16 13 13 14 9 7 6 5 9 12 13 10 5 8 12 15 15 14 15 14 11 14 15 7 6 9 10 14 16 13 10 13 9 5 5 8 12 8 2 1 4 5 4 9 10 9 10 10 10 10 9 9 11 12 12
30 27 27 26 23 22 14 8 13 17 10 6 11 15 12 11 10 5 1 3 4 4 3 4 5 12 17 11 12 11 6 6 9 16 16 15 14 10 8 7 6 8 8 8 7 5 10 16 16 16 15 14 13 10 13 15 9 6 9 10 12 16 15 13 11 8 5 5 7 9 9 5 3 5 9 6 8 9 9 10 10 10 11 11 10 12 13 12
30 28 27 25 22 19 13 12 15 11 9 12 15 13 11 11 8 4 1 3 2 3 3 2 4 11 12 10 16 13 5 2 5 10 15 19 16 9 9 10 8 10 10 8 7 7 10 14 17 18 15 11 11 10 11 14 11 8 9 11 11 12 14 13 8 5 4 6 6 7 8 6 4 7 9 7 8 8 10 12 12 12 13 13 13 13 13 13
30 29 27 24 21 16 11 11 12 10 12 13 12 11 10 7 4 3 1 3 3 5 4 4 3 6 7 9 14 13 8 5 5 6 11 17 16 8 7 9 9 10 13 10 7 7 9 12 16 17 13 10 11 12 12 14 12 8 10 11 11 11 11 9 5 4 2 6 7 9 8 5 2 6 7 7 7 9 10 11 12 13 14 14 14 14 14 13
30 29 25 22 19 14 10 10 12 12 11 9 9 8 4 2 3 2 2 3 3 4 5 4 4 6 4 10 12 12 13 11 8 6 9 9 11 8 5 6 8 8 10 11 8 9 11 10 12 13 12 9 10 12 13 12 10 9 10 10 10 9 5 4 4 1 1 3 6 9 11 8 4 5 8 8 12 14 12 11 12 13 14 14 13 13 14 14
33 29 25 20 15 12 9 8 8 11 10 6 6 4 1 1 1 1 3 1 1 3 3 4 7 11 7 5 9 12 15 14 10 9 9 5 7 9 5 5 6 5 6 8 9 11 13 11 9 10 12 11 10 11 13 12 10 10 9 7 6 4 2 3 4 1 2 3 6 7 11 9 5 5 9 12 14 16 15 15 17 17 15 14 12 12 13 13
35 29 24 18 12 10 9 8 9 11 9 5 4 2 0 0 1 3 3 1 2 2 1 5 9 10 11 10 6 13 14 11 10 10 11 7 7 8 8 6 5 4 5 6 8 10 10 10 9 9 13 14 10 9 10 11 10 10 8 5 5 2 2 4 4 2 3 3 7 10 11 7 5 9 16 17 12 14 15 16 19 19 17 15 13 12 11 11
34 25 18 13 7 8 11 10 10 8 6 6 4 2 0 1 2 3 2 1 1 1 1 4 9 10 11 10 6 13 13 9 10 11 11 10 8 8 10 9 6 5 4 5 7 6 6 9 12 11 11 13 11 8 8 8 9 11 8 5 5 5 4 6 3 2 2 4 7 8 9 5 2 6 19 21 16 17 17 16 19 19 18 17 14 13 12 11
30 20 14 11 6 7 10 9 7 6 5 5 3 1 2 3 2 2 2 2 2 2 3 5 8 12 10 7 7 9 11 9 12 13 11 10 8 7 9 10 13 9 3 5 6 5 5 7 11 10 8 12 12 8 8 6 6 9 8 4 4 4 5 4 2 3 3 3 4 0 4 4 3 6 18 20 16 17 15 14 18 17 16 16 13 13 13 12
25 17 14 12 8 7 7 6 6 4 3 2 1 2 3 2 2 1 2 2 2 3 6 8 8 8 5 6 9 9 9 6 10 12 9 8 7 7 8 9 14 11 5 5 4 6 6 5 9 9 8 15 14 8 10 8 5 7 7 4 5 4 4 4 3 4 4 1 2 1 1 2 2 5 15 16 13 14 14 14 17 16 15 15 13 13 13 12
24 19 14 12 9 6 4 5 5 4 3 2 2 2 2 2 2 1 1 2 2 4 9 9 4 2 1 2 6 8 10 6 8 8 7 7 7 8 9 7 11 11 8 4 3 5 5 4 12 10 7 14 13 7 10 9 5 6 5 5 5 4 4 5 2 2 4 2 3 3 1 2 3 2 6 15 16 15 15 16 18 17 16 16 14 13 13 12
23 17 13 13 12 8 8 5 6 7 4 1 3 3 2 2 4 3 2 2 1 2 6 5 1 2 1 3 4 6 9 7 8 6 5 7 7 8 11 9 11 12 12 7 2 4 3 4 12 11 5 5 3 2 5 5 5 6 5 4 4 4 2 5 3 1 3 2 3 4 3 0 2 2 3 8 16 16 15 17 18 17 16 15 13 13 13 14
19 12 11 13 10 6 9 8 8 7 3 2 6 6 2 2 4 4 3 2 1 1 3 2 1 3 1 3 3 7 8 6 7 7 5 5 5 8 12 10 10 13 14 10 5 3 4 3 5 8 6 1 2 3 5 6 5 5 6 6 4 4 3 1 3 3 4 3 3 5 6 3 5 6 4 7 14 16 16 17 19 18 16 13 12 13 14 15
14 7 5 3 1 4 9 9 8 5 3 2 5 4 2 4 7 5 1 1 0 1 2 2 0 2 2 2 4 6 7 5 6 5 4 4 3 9 14 9 7 12 14 11 6 3 5 4 1 4 7 4 2 2 3 5 8 6 6 6 4 4 3 2 3 4 4 5 2 4 5 4 3 9 13 14 15 18 18 17 18 19 16 13 13 13 13 14
8 4 2 2 2 4 8 7 5 3 2 3 4 4 4 6 8 7 2 4 2 1 2 3 2 2 3 4 5 4 5 6 5 3 3 5 4 8 14 11 7 9 11 10 7 2 4 5 3 5 7 7 5 5 6 5 6 6 4 5 5 3 3 2 1 2 4 4 4 3 3 5 5 7 13 17 19 21 21 19 18 17 15 14 15 15 14 13
6 3 1 2 2 5 6 3 3 3 2 4 5 5 6 7 8 9 3 5 3 2 3 4 4 2 2 4 5 4 3 5 5 4 3 6 5 5 11 13 8 7 6 6 6 2 3 4 5 5 5 7 6 5 8 7 7 8 4 3 6 5 4 3 2 3 3 3 4 5 4 6 4 4 9 16 19 19 21 22 18 16 17 17 16 15 15 14
4 2 2 1 3 6 4 2 3 2 2 3 5 6 8 7 6 8 5 1 1 2 3 3 4 4 3 4 4 5 5 4 6 5 2 6 7 5 9 12 10 7 4 2 5 3 4 5 5 5 4 7 7 7 11 10 7 8 5 3 5 5 5 5 3 4 3 2 3 4 3 6 6 4 6 13 19 19 21 22 18 15 17 17 16 15 14 14
2 6 7 5 6 5 3 4 4 1 2 4 6 7 7 6 5 5 5 3 3 2 2 3 4 4 3 4 4 5 7 3 5 3 2 4 8 9 10 11 10 8 4 2 4 3 2 4 6 4 2 6 7 7 10 10 5 4 5 5 4 5 7 5 4 4 2 3 3 3 3 5 6 3 3 9 17 19 17 18 18 15 13 15 16 15 14 13
3 6 5 5 8 5 2 3 4 4 6 6 6 6 5 4 5 6 5 4 3 2 2 3 4 3 4 6 5 5 8 3 4 2 4 3 6 9 11 13 10 7 3 2 1 2 1 2 6 5 2 4 6 5 7 8 5 2 3 5 4 6 11 8 3 1 2 4 5 6 3 6 6 3 9 10 12 15 14 14 18 16 13 13 14 13 14 14
4 3 1 2 7 5 3 3 4 6 8 9 8 8 5 2 4 6 6 5 4 3 3 4 4 5 6 7 6 7 7 1 4 4 6 4 4 5 8 13 11 7 6 1 6 2 3 2 5 5 4 6 6 4 3 3 2 1 2 5 6 6 10 10 3 0 3 5 4 6 3 5 4 7 13 13 12 13 13 13 14 15 14 13 12 13 14 14
3 2 3 2 2 2 3 4 5 5 7 9 8 7 7 5 2 2 3 3 4 6 4 4 5 6 5 6 6 5 2 4 3 5 5 4 3 5 8 13 12 6 5 3 7 5 2 2 4 6 5 5 5 4 3 3 3 3 4 4 5 5 6 7 4 4 4 2 0 3 6 4 3 9 13 15 15 14 14 13 13 13 14 13 12 13 14 14
2 2 3 4 3 4 4 5 5 6 9 9 6 5 7 7 5 3 1 2 6 9 5 3 4 5 5 7 6 4 2 7 7 5 3 3 2 1 3 7 8 2 2 2 4 4 2 1 4 5 3 5 6 8 8 7 6 5 5 6 7 7 4 5 5 6 5 4 2 3 9 9 4 7 11 14 15 15 14 14 13 14 14 13 13 13 14 14
3 2 2 4 4 5 6 8 9 11 14 11 5 5 7 8 8 6 3 3 6 7 4 2 6 9 9 9 6 4 3 4 3 2 2 2 3 5 4 4 2 1 5 4 3 3 3 1 2 2 4 6 6 9 11 10 8 7 7 8 9 9 6 5 7 5 3 6 4 5 10 9 5 6 10 12 14 15 15 14 14 14 14 14 14 15 15 15
3 2 2 4 4 6 8 11 13 13 13 10 4 4 7 10 10 6 1 3 5 6 4 4 8 10 11 10 5 3 5 4 3 4 4 5 5 3 2 5 5 3 2 2 2 2 3 1 2 2 3 7 7 10 14 14 10 7 5 6 6 8 8 6 7 3 3 6 9 9 10 8 5 6 9 10 11 13 12 11 11 13 15 16 16 16 16 15
3 2 4 3 4 6 7 9 10 10 9 7 5 6 9 10 11 7 2 1 3 5 4 4 9 10 10 10 5 3 4 5 4 5 7 8 5 1 1 2 2 2 3 2 2 3 3 1 2 5 4 7 6 3 9 13 12 7 6 7 6 6 5 4 3 3 4 4 7 11 11 5 1 6 10 10 10 13 13 12 12 12 14 15 15 15 16 15
6 6 6 5 4 6 6 6 8 7 5 5 5 8 10 10 11 10 4 3 3 3 4 4 7 8 6 8 7 4 4 5 5 7 7 6 5 4 3 3 2 3 3 1 3 3 3 2 2 6 5 6 3 5 2 8 12 8 7 8 8 6 3 2 2 3 5 4 5 8 9 5 3 6 11 10 12 15 14 14 13 12 14 15 15 16 16 15
9 6 5 4 4 5 6 6 7 6 4 6 9 11 11 10 11 10 5 3 6 5 6 5 5 5 5 7 6 5 7 7 7 9 8 7 8 7 6 6 2 4 1 1 3 2 3 3 2 4 2 5 0 7 5 4 9 6 6 6 6 6 4 1 2 2 4 6 6 5 6 8 10 11 11 10 11 14 14 13 13 13 14 14 14 15 15 15
Wind_Direction
341 340 340 340 340 341 341 341 342 341 340 337 332 329 325 322 317 306 294 288 293 300 305 308 309 312 315 316 317 318 320 317 309 301 278 263 260 253 253 266 269 268 267 258 255 263 269 260 246 233 227 226 221 223 237 236 220 200 193 219 233 228 228 227 236 247 248 258 257 257 243 206 218 226 175 117 90 97 9 38 67 54 86 134 137 142 147 150
338 338 337 337 337 338 338 338 339 339 339 337 333 331 327 323 320 315 306 296 290 292 301 304 305 311 315 315 315 318 321 313 299 285 274 270 265 253 245 254 261 256 248 238 235 232 237 240 229 227 220 214 214 212 225 225 218 215 190 211 228 224 233 237 245 256 258 273 273 292 11 3 351 339 176 127 120 137 76 55 79 78 88 112 128 141 148 152
337 337 337 336 336 336 335 335 336 336 336 335 332 329 326 324 323 319 314 306 294 288 294 300 302 308 313 313 314 320 320 309 295 274 277 280 260 240 232 242 249 245 238 232 231 228 237 248 238 224 208 222 221 207 212 214 219 221 203 215 227 220 241 250 248 257 259 270 274 26 41 1 349 337 344 28 78 128 128 109 101 106 119 125 135 146 150 154
336 335 334 334 335 333 333 332 331 333 333 332 330 328 325 321 321 319 316 312 301 288 285 291 299 304 311 314 314 323 320 304 286 257 281 304 280 230 221 232 239 241 242 240 239 240 253 270 270 246 213 215 220 215 213 210 213 216 215 223 222 207 229 248 253 264 264 265 271 109 107 309 319 316 328 353 15 332 165 144 143 138 141 143 145 152 155 158
332 332 331 330 331 330 331 331 329 329 328 329 328 327 325 320 318 318 318 315 308 297 284 282 292 300 310 312 315 324 321 296 268 94 349 5 14 261 222 231 235 239 242 240 241 248 259 269 280 269 229 210 212 219 218 212 212 226 229 227 228 219 221 233 243 256 259 263 276 258 162 177 176 305 311 292 259 244 227 146 150 148 150 155 154 158 158 159
327 327 328 327 327 327 327 328 328 326 326 326 325 325 324 322 318 317 319 315 313 307 291 282 285 296 306 308 315 316 294 279 340 78 38 357 0 344 249 235 233 234 233 230 234 239 248 245 242 256 236 211 209 215 220 212 212 228 237 225 224 234 240 240 236 243 253 266 276 269 202 102 105 335 283 256 216 244 290 145 151 154 156 157 155 157 160 162
326 325 324 323 323 323 323 324 324 323 324 322 321 322 322 321 318 316 316 313 313 311 298 284 282 292 304 312 317 297 239 266 269 246 314 302 298 310 273 234 233 224 217 215 220 222 228 231 224 227 232 223 210 214 223 217 217 222 232 227 218 225 239 254 255 251 263 278 279 291 27 28 67 305 286 278 221 290 314 138 146 147 145 149 152 156 156 146
327 324 323 322 320 320 319 319 319 319 319 319 318 318 319 319 317 314 312 312 312 311 303 288 282 286 300 313 314 289 241 255 256 265 297 280 261 283 245 217 223 208 205 207 214 216 217 226 224 222 232 230 213 213 222 221 222 222 226 229 219 220 225 241 256 261 269 276 277 13 29 345 319 312 297 299 325 7 98 120 130 132 131 132 118 105 99 94
332 327 325 323 321 320 318 315 316 315 314 315 315 313 315 315 314 313 309 308 309 309 305 292 283 281 290 295 289 283 260 251 255 267 290 284 269 259 232 235 218 195 204 213 218 222 218 223 223 225 240 243 222 215 222 224 221 216 223 232 225 227 228 232 244 251 258 258 243 248 343 307 303 306 296 292 347 77 111 115 119 119 112 99 79 66 56 76
336 333 329 325 322 320 318 316 314 312 310 311 310 308 309 310 310 310 307 305 305 306 303 295 283 279 281 276 268 269 264 262 267 272 290 318 310 278 242 251 230 202 206 215 222 226 224 225 227 232 248 259 241 218 220 227 228 213 218 231 231 231 236 238 245 247 250 238 188 181 215 244 255 262 280 314 359 100 107 93 81 77 62 58 61 71 68 39
336 335 333 328 324 321 319 317 314 312 309 307 306 304 304 305 305 305 305 302 300 301 300 296 287 277 269 264 256 255 266 276 284 288 295 304 309 302 271 264 260 228 212 207 217 227 233 236 239 243 237 249 257 244 229 230 242 237 223 226 229 231 237 242 252 254 254 238 186 169 184 211 230 234 223 243 26 80 92 84 83 86 81 78 76 89 90 62
334 332 332 330 327 323 320 316 315 312 309 306 303 301 300 300 300 300 301 300 299 296 296 296 288 278 267 258 242 251 267 279 284 289 292 292 298 299 286 278 284 273 248 225 215 219 230 241 244 247 240 235 252 261 248 230 237 248 242 230 224 226 231 233 243 252 254 244 183 150 170 224 230 244 233 180 97 87 88 91 100 107 115 121 115 115 114 117
330 329 328 328 327 325 322 317 315 311 309 307 303 301 298 296 295 296 295 296 297 293 292 293 288 280 267 255 248 257 266 276 281 283 284 286 289 287 285 281 282 281 272 269 251 227 224 235 243 251 257 254 242 257 273 248 237 247 250 246 225 221 227 224 225 243 250 237 136 117 179 244 223 235 249 157 112 105 101 105 113 115 115 118 115 110 104 106
329 327 326 326 325 324 323 320 317 313 309 306 303 301 296 293 291 290 291 291 293 294 292 290 289 280 263 262 271 268 269 272 273 273 273 275 278 277 276 273 272 271 268 267 269 262 242 236 240 249 256 256 259 262 265 256 236 238 246 248 226 211 220 217 210 222 237 221 148 135 219 245 227 248 252 124 118 119 124 138 137 119 112 116 119 116 111 99
329 327 325 325 324 323 322 321 320 316 311 306 303 300 295 292 288 286 286 286 288 292 292 290 285 276 268 273 272 276 280 268 260 261 262 258 258 266 263 262 262 259 260 260 260 266 265 249 238 237 246 252 260 257 255 253 232 218 226 232 221 211 208 215 206 205 222 218 166 162 223 231 183 331 71 121 129 135 140 149 136 121 120 124 125 121 117 116
330 327 326 324 323 321 320 319 319 317 314 308 304 300 296 291 287 284 281 280 284 289 292 287 272 257 258 272 272 280 279 257 251 257 258 247 237 246 254 257 258 248 248 254 255 254 258 258 237 227 233 241 241 238 248 256 240 215 203 207 213 211 201 220 217 201 209 215 182 181 210 210 156 115 104 128 133 134 134 133 125 124 125 124 121 119 119 118
330 329 327 325 323 322 321 319 319 319 316 311 306 302 296 292 289 284 279 277 278 278 274 263 270 275 259 273 288 281 263 251 252 253 252 244 229 229 245 256 254 242 236 243 248 245 245 248 227 218 220 232 229 209 224 232 222 217 198 197 221 211 189 207 234 210 200 204 199 193 197 149 128 127 118 134 132 126 130 135 131 127 125 125 120 120 124 125
331 330 327 325 324 323 322 320 320 321 317 313 308 303 300 298 293 285 277 274 270 266 260 252 269 303 256 246 250 250 252 252 251 244 237 230 220 219 229 243 250 238 227 232 237 230 226 230 221 207 205 220 224 205 210 217 202 198 193 195 229 221 200 202 219 221 195 198 202 194 193 154 127 131 126 140 134 125 134 141 136 134 129 128 128 129 134 137
330 329 327 324 323 322 321 320 321 321 319 315 311 309 306 300 290 276 261 251 243 233 244 232 203 222 276 260 233 243 270 272 253 237 224 209 203 209 216 229 251 238 219 213 210 211 206 213 221 208 202 208 216 215 209 217 212 202 198 198 213 220 228 212 209 221 200 193 197 191 192 165 142 146 143 147 135 122 130 136 133 135 129 130 136 139 142 144
328 327 326 323 321 321 320 319 319 319 320 317 315 315 312 306 296 269 236 217 217 220 237 240 201 222 275 286 275 285 302 296 269 215 212 200 181 192 208 216 239 242 223 205 191 202 200 212 221 208 203 201 210 223 217 221 233 223 202 202 210 215 239 224 212 222 202 185 195 198 199 169 152 155 150 147 135 126 134 138 137 137 131 135 141 141 147 150
326 324 324 323 320 319 318 317 316 316 317 314 312 307 300 301 295 316 320 250 228 223 231 244 232 230 249 260 279 298 307 307 305 250 220 202 170 173 200 200 216 231 213 203 190 191 206 219 219 207 203 200 208 221 220 220 234 239 211 200 204 205 232 237 229 225 196 178 189 195 205 174 157 158 151 147 141 146 154 150 150 144 135 138 143 144 146 143
326 325 323 321 319 319 318 315 312 310 310 305 295 278 267 279 287 310 324 296 263 242 235 243 242 241 247 255 266 277 286 289 294 286 234 202 172 167 187 192 206 218 197 202 194 181 210 223 210 202 204 204 206 212 223 227 231 242 229 215 210 196 213 234 243 239 196 177 184 190 202 164 151 150 146 150 145 152 161 154 156 150 142 147 150 150 146 141
329 328 326 321 319 320 319 316 312 309 306 291 267 261 268 281 301 322 318 283 289 272 246 243 243 240 244 256 259 258 268 265 272 275 225 197 184 174 185 192 202 211 195 201 201 183 204 215 201 204 204 205 205 202 217 234 233 239 229 226 242 212 200 210 242 246 195 174 166 168 168 115 133 131 129 150 130 130 141 137 148 151 147 152 155 150 142 141
332 330 328 327 325 322 321 318 312 311 308 286 262 269 282 286 299 316 312 263 282 267 244 235 236 236 232 245 250 235 249 251 255 263 219 193 194 184 193 195 196 210 202 203 210 200 198 188 194 208 205 205 207 197 207 224 233 237 229 221 240 240 222 202 227 238 187 173 134 123 98 78 141 142 139 144 118 121 128 128 138 145 137 134 135 132 127 132
332 331 329 331 330 324 323 318 312 323 325 307 288 310 309 294 290 293 298 282 269 258 241 226 222 233 229 234 237 223 246 249 243 257 228 196 196 188 196 197 198 214 201 201 210 209 200 182 189 206 204 203 209 202 204 211 227 241 233 222 232 248 245 218 217 208 163 190 144 122 108 308 172 136 140 138 130 132 133 140 145 141 136 131 129 132 130 133
333 332 330 331 329 326 327 319 315 327 324 318 336 331 317 304 302 289 231 262 267 267 228 193 174 205 211 220 218 209 250 256 246 252 248 224 209 200 209 195 195 219 200 195 212 214 195 186 190 203 202 201 209 212 207 204 210 237 226 217 230 245 256 244 226 208 163 194 183 145 136 177 333 317 272 169 143 148 143 144 147 141 143 143 139 139 139 139
334 333 331 329 327 327 326 305 313 319 311 321 330 320 312 315 321 319 280 244 259 298 255 167 139 179 188 189 178 181 227 240 240 244 240 240 225 207 221 204 187 218 203 185 206 211 192 188 189 198 201 202 207 212 205 198 202 232 225 221 230 238 252 256 241 225 180 164 194 172 131 121 165 226 238 202 139 145 147 147 153 149 147 149 149 147 145 143
334 333 330 328 324 321 309 291 301 301 285 307 316 308 311 322 333 4 16 258 276 358 331 269 172 169 177 177 174 188 239 178 201 227 222 234 232 203 217 220 199 210 213 200 193 194 200 194 186 192 202 204 205 210 200 194 202 225 228 231 238 237 244 253 259 260 192 150 204 202 130 111 175 194 198 173 149 160 161 160 163 157 151 154 157 152 147 145
332 330 327 327 323 320 312 287 282 290 298 308 309 302 310 327 0 49 114 270 326 23 357 294 211 175 185 177 176 201 237 232 221 199 194 225 235 221 226 229 217 217 225 228 201 184 210 207 188 189 202 203 199 206 207 200 199 211 227 236 244 240 241 251 265 283 207 170 205 207 165 130 148 185 180 159 167 182 170 166 166 160 158 160 159 153 148 146
330 326 325 328 322 322 326 292 280 304 315 315 309 302 314 359 41 37 262 272 352 358 331 302 302 319 250 179 178 202 217 233 241 180 170 217 235 234 246 241 237 233 228 233 223 201 208 210 194 189 199 200 190 199 214 211 191 196 224 240 245 243 254 274 257 277 62 228 226 197 176 155 137 193 188 177 186 183 167 160 161 160 160 158 156 154 152 150
329 325 326 324 307 303 310 290 293 316 319 322 319 312 29 45 74 307 263 236 1 308 314 314 323 336 326 207 189 198 211 233 236 179 169 203 218 217 230 230 230 243 233 225 222 214 205 202 200 186 186 195 191 192 210 217 200 199 213 221 236 253 309 295 272 157 130 257 259 206 180 168 162 195 199 202 195 175 165 162 162 161 157 153 156 156 154 150
331 329 327 318 293 273 263 268 298 311 315 333 320 299 96 107 182 243 261 29 330 298 45 326 320 335 330 314 242 199 205 230 226 179 166 191 211 205 208 208 183 188 220 206 206 218 207 197 198 179 178 194 197 183 201 215 207 208 208 190 192 195 212 231 240 211 189 244 243 199 183 190 187 181 190 200 192 170 171 167 160 159 152 152 159 154 149 147
334 331 325 317 296 259 254 273 296 301 322 335 305 286 233 253 222 210 232 328 279 268 111 268 293 306 305 308 264 201 196 219 216 180 168 191 211 205 208 222 220 207 205 192 198 207 196 194 196 182 174 192 202 182 190 207 196 204 207 172 167 167 187 214 202 166 193 260 251 192 170 204 257 171 185 189 182 173 174 163 155 155 151 153 157 149 145 147
335 332 325 323 310 273 264 271 278 280 311 327 311 292 271 271 255 205 227 263 248 265 271 251 280 295 277 260 259 209 186 217 211 177 170 190 199 201 204 219 231 237 213 186 196 186 183 190 192 188 166 182 205 196 180 185 175 202 210 170 179 182 170 194 165 140 190 246 283 256 154 205 241 190 185 184 178 168 162 151 148 147 145 147 149 146 147 148
336 334 326 316 299 284 277 259 250 252 275 299 296 262 262 273 278 277 252 257 283 286 287 281 273 278 250 235 261 221 180 221 215 179 175 191 190 197 198 210 224 232 219 189 186 186 192 178 184 197 167 174 201 204 176 174 167 200 210 187 221 220 150 151 157 152 160 181 307 315 179 215 242 180 170 168 164 156 147 140 141 142 143 145 148 151 150 146
335 333 323 305 284 264 243 233 224 210 218 266 288 252 255 280 268 306 289 244 300 306 305 306 268 222 208 236 269 223 184 210 221 189 178 191 199 201 198 211 222 225 225 202 153 176 187 174 185 189 162 174 193 199 181 174 161 191 210 200 228 234 137 121 152 128 99 111 270 259 247 354 6 35 145 155 154 152 147 141 142 146 147 148 154 155 151 145
332 329 316 297 287 249 204 193 194 203 212 243 284 267 228 269 262 256 260 260 299 300 308 323 37 25 261 205 279 241 198 199 207 190 167 185 205 202 201 222 228 227 232 223 182 173 161 167 182 166 121 164 199 279 226 197 160 174 202 210 227 239 176 114 128 92 95 138 268 256 226 239 103 14 317 160 149 147 148 142 142 147 150 153 155 153 149 145
320 310 297 286 286 227 184 173 181 205 232 251 278 280 217 232 269 250 239 259 319 283 303 319 354 355 324 198 273 242 206 190 186 177 165 184 199 197 202 221 226 228 239 236 231 200 149 118 167 145 113 72 335 328 286 279 244 192 177 193 188 187 214 108 126 156 155 164 295 276 240 228 150 158 206 182 150 142 144 141 144 153 157 155 150 148 146 144
314 294 291 268 265 163 165 166 182 214 269 263 274 290 271 286 299 308 301 187 127 263 299 331 331 322 316 280 282 231 193 179 181 173 164 180 191 201 208 221 222 224 236 239 238 207 144 105 129 155 136 143 258 222 221 269 258 217 173 193 194 157 166 160 148 160 160 165 220 261 245 251 200 167 170 168 151 143 145 145 152 161 160 152 148 149 148 147
323 299 312 100 106 153 160 169 202 234 258 255 272 287 300 304 307 321 345 150 150 236 267 326 313 306 323 299 290 257 192 181 192 178 166 190 180 194 213 225 227 226 235 243 253 234 121 111 145 173 157 166 208 214 198 213 221 205 185 192 198 177 134 133 219 189 148 152 179 193 239 265 240 180 163 156 151 151 151 152 159 162 154 149 151 151 152 153
317 301 295 91 129 163 158 181 233 242 245 254 267 275 299 308 302 315 331 155 171 212 218 285 287 278 312 291 299 300 231 191 198 199 174 189 185 196 222 225 224 236 236 241 264 250 124 113 143 170 182 189 204 204 202 218 207 186 190 195 185 176 131 112 283 252 156 145 164 163 216 272 267 197 161 148 151 157 154 155 162 158 150 152 155 155 155 154
294 308 294 193 191 188 184 244 247 221 232 267 292 306 316 311 295 315 332 184 227 250 218 253 263 251 259 271 306 309 272 209 192 217 193 176 193 220 233 225 223 241 234 223 274 252 130 115 144 166 180 187 199 204 210 230 217 171 189 218 168 160 147 131 183 227 206 206 184 143 188 260 279 245 173 146 151 158 156 155 156 152 152 154 153 152 152 150
298 306 293 245 212 206 223 269 273 251 242 278 300 306 310 309 298 314 335 333 330 318 241 247 256 258 281 292 304 302 285 228 172 242 299 166 195 223 226 217 218 234 228 209 262 257 95 109 149 152 142 175 191 206 217 235 233 163 200 218 161 171 183 163 171 194 199 230 201 125 167 252 287 299 116 131 146 151 151 149 144 143 149 150 149 148 147 144
305 293 281 220 205 218 256 280 305 312 300 303 301 286 279 280 284 297 320 323 308 290 277 278 273 271 286 289 284 287 292 277 147 242 284 183 204 228 211 197 209 227 199 154 281 226 166 117 140 136 103 161 181 201 219 231 232 183 204 205 194 184 181 190 242 272 266 236 172 130 169 253 285 47 84 98 127 136 136 138 137 139 144 147 147 145 143 143
304 279 290 195 202 224 265 281 305 306 309 319 317 309 315 277 253 272 292 298 300 303 284 278 289 282 281 292 289 281 285 247 134 240 253 213 212 232 203 191 205 221 196 188 2 5 181 131 124 144 150 165 181 194 210 222 214 298 273 200 200 191 178 188 205 124 257 251 156 124 175 250 309 58 92 108 118 119 122 126 130 135 139 145 147 145 145 145
322 309 335 335 225 251 287 284 305 311 314 326 326 328 346 347 300 276 289 308 349 345 306 271 296 291 286 312 313 295 282 144 185 250 234 206 217 219 209 203 204 208 204 241 354 18 152 151 132 144 155 175 178 163 165 172 172 230 270 224 212 218 185 168 163 178 201 237 169 151 153 152 57 66 101 125 125 118 122 126 130 138 143 150 151 147 147 147
348 343 344 343 312 328 342 328 338 330 312 319 326 323 335 343 348 9 359 350 3 350 321 279 326 331 319 326 328 311 223 192 225 248 182 201 274 155 186 207 197 167 14 330 353 39 86 149 150 144 179 204 175 155 166 183 193 211 229 226 228 237 204 142 173 204 162 124 249 203 134 130 125 102 117 131 128 127 135 140 145 149 149 151 148 143 144 146
8 338 359 10 337 330 337 321 316 312 309 316 321 313 327 348 3 16 358 339 1 359 353 337 340 342 333 327 327 314 284 214 244 328 142 236 336 50 29 329 285 346 7 357 351 65 88 148 164 162 249 241 202 175 170 178 202 213 205 203 215 237 242 179 185 212 118 122 195 181 130 130 139 121 125 134 134 137 144 147 148 148 147 146 144 144 146 148
2 306 345 18 342 308 302 298 296 299 309 320 324 322 336 351 5 20 349 319 348 358 9 354 332 334 334 328 331 352 352 353 344 353 4 344 353 68 41 315 308 309 323 322 326 39 92 25 20 51 303 277 241 194 170 169 194 216 205 202 212 232 242 213 189 190 99 133 160 151 126 120 129 129 125 125 127 130 132 135 141 144 147 147 146 148 150 149
357 313 329 340 314 302 295 295 298 297 308 323 329 338 343 348 356 3 11 23 346 335 352 357 336 333 332 330 342 56 27 356 328 330 352 352 345 47 119 259 267 263 229 217 343 17 76 27 2 61 24 298 270 181 157 169 182 197 209 221 228 228 235 230 188 120 100 136 158 144 124 100 105 129 118 114 118 120 123 132 140 147 149 148 147 150 150 148
333 307 318 315 303 315 314 313 312 305 310 331 338 342 345 347 346 344 352 128 141 279 282 316 330 326 330 347 3 17 348 328 305 303 325 334 305 290 286 263 212 177 212 223 20 30 78 43 348 64 46 287 274 46 52 175 170 179 208 222 226 213 203 244 230 153 137 132 133 137 131 134 182 136 118 125 131 129 134 140 143 151 153 152 153 154 152 150
334 309 315 311 286 307 323 325 320 315 328 346 340 337 337 334 334 337 340 152 164 207 246 279 327 337 348 353 346 325 313 303 291 296 303 292 276 271 277 280 226 140 179 37 50 28 80 83 39 68 44 276 185 64 38 133 148 185 233 238 226 195 162 216 261 185 160 137 129 165 173 159 158 142 128 137 142 139 146 148 146 152 156 155 157 157 154 151
Height
815 813 812 811 809 808 807 806 805 803 802 801 800 799 798 797 796 796 795 795 795 794 794 793 791 790 788 787 785 783 780 777 772 772 769 758 757 759 757 759 759 759 761 761 762 763 762 762 761 761 762 763 763 762 760 757 756 762 770 780 783 778 772 764 761 756 752 748 741 736 732 734 736 729 721 719 724 726 726 726 725 725 725 730 734 738 744 750
814 813 811 810 809 807 806 805 804 803 801 800 799 798 797 796 795 794 794 793 793 793 793 792 790 789 788 786 784 783 780 776 772 768 759 751 754 756 755 757 758 759 760 760 761 761 762 761 759 760 761 763 761 759 760 756 755 761 767 775 774 768 762 753 752 747 745 744 738 735 732 732 734 729 723 727 733 728 732 737 734 737 738 737 739 744 747 748
814 813 811 810 808 807 806 804 803 802 801 800 798 797 796 795 794 793 792 792 791 791 791 790 789 788 788 785 784 783 779 774 770 760 749 746 749 750 752 755 756 758 759 759 759 760 760 759 758 758 760 763 760 758 760 756 755 757 761 770 765 757 755 748 745 742 739 737 735 735 731 731 730 726 725 731 736 732 738 744 744 748 749 745 745 747 750 750
813 812 811 809 808 806 805 804 803 801 800 799 798 797 795 794 793 792 791 791 790 790 789 789 788 787 787 785 783 782 779 775 764 751 745 746 746 747 751 753 755 757 757 758 759 759 759 758 758 757 759 762 759 756 758 755 754 754 755 761 755 751 754 747 742 739 735 732 733 735 732 733 728 724 727 732 739 740 738 739 740 745 747 747 748 748 750 752
813 812 810 809 807 806 804 803 802 800 799 798 797 796 794 794 793 792 791 790 789 788 788 787 787 786 786 785 783 782 782 772 754 747 747 747 746 747 750 751 754 755 756 758 758 758 758 758 758 758 757 758 758 756 755 750 749 752 749 749 747 747 750 744 738 736 732 730 732 735 735 733 727 727 730 732 742 741 733 731 732 735 738 740 743 745 749 752
812 811 810 808 806 805 804 802 801 800 799 797 796 795 794 793 791 791 790 789 788 787 786 786 785 785 785 784 782 783 784 768 747 747 749 748 749 748 750 750 752 754 755 757 757 757 757 756 758 760 756 754 755 755 752 746 745 752 749 743 743 743 744 739 734 732 729 731 735 735 731 728 730 733 730 731 736 731 723 725 728 730 732 734 737 742 747 751
811 810 809 807 806 805 803 802 800 799 798 796 795 794 793 792 790 790 788 788 787 786 785 784 784 784 783 783 781 780 782 767 746 747 749 749 751 749 749 749 750 752 753 755 755 755 755 755 756 756 756 753 751 750 748 744 742 749 749 742 740 739 739 735 730 729 729 732 733 729 729 730 736 736 731 731 729 723 721 722 726 731 733 737 740 743 746 752
810 809 807 806 805 803 802 801 799 798 797 795 794 793 792 791 789 788 787 787 786 785 784 783 783 783 783 783 781 779 777 762 746 747 750 749 750 749 749 749 749 751 751 753 752 752 753 753 753 752 755 751 746 746 744 744 743 743 745 740 736 735 735 732 728 729 730 730 727 726 731 733 734 734 734 734 728 723 723 725 730 734 738 744 749 753 757 761
809 808 806 805 803 802 801 799 798 797 795 794 793 792 791 790 788 787 786 785 784 784 782 782 782 781 783 781 781 779 767 753 747 749 752 751 750 749 749 748 749 749 750 751 750 751 751 750 749 747 750 747 742 743 740 745 745 738 738 737 734 734 732 730 728 727 729 728 726 728 733 732 729 733 738 732 728 728 726 730 736 739 746 751 756 762 768 770
808 806 805 804 802 801 799 798 797 795 794 793 792 791 790 788 787 786 785 784 783 783 781 781 780 780 781 778 781 775 754 747 750 750 752 752 751 750 748 747 747 748 748 749 748 749 747 746 745 743 745 743 739 739 737 740 738 732 734 734 732 732 729 728 727 726 726 726 725 730 734 732 728 736 744 733 726 729 732 740 746 750 760 763 764 767 772 778
807 805 804 802 801 800 798 797 795 794 792 791 790 789 788 787 786 785 784 783 782 782 780 780 779 779 779 776 778 767 746 747 750 749 751 749 749 748 747 746 746 746 746 746 746 745 745 744 741 742 745 742 738 737 734 731 731 728 730 733 730 730 728 726 726 725 726 726 723 726 732 732 731 738 742 733 730 734 740 748 751 756 765 768 770 769 771 779
806 804 803 801 800 798 797 795 793 792 791 789 789 787 787 786 784 783 782 781 780 780 779 779 778 777 776 773 770 758 746 748 748 747 750 748 748 747 745 745 743 744 743 743 743 742 744 742 740 743 742 738 739 741 733 725 727 727 728 735 734 730 730 726 725 724 726 727 719 723 737 740 738 740 736 730 735 741 747 752 753 755 760 764 767 768 768 771
805 803 802 800 798 796 795 793 792 791 789 788 787 785 785 783 782 782 781 780 779 778 778 777 776 775 775 767 758 753 750 749 746 745 746 747 748 745 743 743 742 742 741 740 740 740 742 740 740 741 737 737 739 736 728 723 726 728 727 733 736 737 735 725 723 724 725 726 716 725 751 752 741 737 732 731 738 744 749 753 755 758 760 764 768 770 771 771
804 802 800 799 797 795 793 792 791 789 788 786 785 784 782 781 781 779 779 778 777 777 776 776 775 775 771 760 753 751 749 747 746 743 742 745 746 744 743 742 741 741 739 740 738 738 740 739 739 739 736 735 734 730 728 727 728 729 731 733 735 743 740 723 721 725 727 725 715 728 755 754 742 738 732 732 739 743 749 751 753 759 763 766 770 771 773 774
803 801 799 797 795 794 792 790 789 787 786 784 783 782 780 779 778 777 777 776 775 775 775 774 773 773 769 758 750 747 745 745 743 739 738 742 745 743 742 741 740 739 739 739 737 737 738 737 738 739 737 733 732 735 736 734 729 728 738 742 736 741 740 724 719 722 728 726 717 730 752 749 743 744 737 734 738 740 747 751 753 758 762 765 768 770 773 774
802 800 798 796 794 792 791 789 787 785 784 783 781 779 777 776 775 774 774 773 774 774 774 774 770 772 769 755 747 744 742 739 736 734 734 738 742 741 740 741 739 738 739 737 736 736 735 735 735 735 736 734 734 740 742 743 737 729 736 745 740 739 741 731 721 717 722 726 722 730 745 746 745 748 742 737 738 741 747 754 757 759 761 764 767 770 773 775
801 799 797 795 793 791 789 787 786 784 783 781 779 777 775 773 771 771 771 772 773 771 773 771 768 771 763 750 747 742 734 732 731 732 731 733 737 738 740 739 737 737 737 736 735 734 733 734 734 733 734 735 733 738 749 755 749 736 734 741 738 735 739 737 728 717 716 725 727 729 737 745 749 748 746 741 740 743 749 755 760 762 762 763 766 769 771 773
800 798 796 794 792 790 788 786 784 783 781 779 777 775 772 769 768 768 768 769 770 770 772 769 770 774 756 742 743 734 726 729 729 728 728 729 732 735 738 738 736 735 735 736 734 732 733 732 732 735 735 735 733 735 748 751 744 740 738 741 740 734 734 735 730 720 716 722 728 731 736 745 751 748 747 745 741 745 751 755 758 761 762 764 765 767 769 770
799 796 794 792 790 788 786 785 783 781 780 778 776 773 770 765 763 764 765 767 769 770 770 765 766 767 747 732 733 729 726 727 725 724 724 725 729 733 735 736 735 734 735 737 734 730 732 733 734 736 734 733 731 731 737 736 731 732 733 737 740 737 733 728 725 716 714 723 728 731 736 742 749 749 747 746 742 746 752 754 757 759 761 763 765 766 767 768
797 795 793 791 789 787 785 783 782 780 779 777 775 773 769 765 763 763 762 764 764 762 760 756 756 755 743 731 728 729 728 723 721 721 720 720 724 730 733 734 735 734 733 734 734 728 729 737 736 732 730 729 728 727 727 725 723 724 727 731 733 735 733 723 718 711 708 721 728 726 730 738 746 745 743 745 745 747 752 754 757 758 761 763 764 766 767 768
796 794 791 789 787 785 783 782 780 779 778 777 775 774 772 768 767 765 761 760 757 754 752 749 749 749 742 733 728 732 731 723 719 717 717 717 720 727 730 731 735 736 730 728 729 726 728 736 733 726 725 723 724 724 723 723 723 723 724 727 728 730 729 718 713 707 703 717 727 723 727 737 742 742 741 742 746 749 749 752 756 758 762 763 764 766 767 768
794 791 789 787 785 783 782 780 778 777 776 775 775 774 770 768 768 766 763 760 751 748 749 746 745 744 739 732 730 734 736 730 722 716 713 714 717 724 725 727 733 731 726 724 727 730 732 732 727 721 719 719 721 722 723 723 723 724 723 727 729 725 723 719 710 702 701 714 725 723 726 737 740 740 740 740 743 746 746 747 751 755 760 764 764 764 766 769
792 789 787 785 783 781 779 778 776 774 773 773 772 771 768 766 766 764 765 763 753 744 743 742 741 740 737 731 728 733 736 731 726 717 710 712 714 718 721 724 728 726 723 722 724 731 734 729 721 717 716 718 721 720 723 725 723 723 723 729 732 722 722 726 713 703 701 705 715 723 732 742 743 743 743 741 740 743 746 748 750 753 756 761 762 763 766 769
790 787 785 783 781 779 777 775 773 771 771 770 769 768 766 765 764 764 764 763 755 740 734 734 733 732 730 726 726 732 732 727 724 715 708 709 712 714 716 719 723 723 719 717 719 725 727 720 715 714 714 716 721 721 723 728 728 722 719 725 727 719 717 718 709 702 702 703 709 725 749 755 746 747 747 742 742 745 748 751 754 755 756 760 764 764 767 770
788 786 783 781 780 777 776 774 770 770 769 768 768 766 766 764 763 763 764 764 755 734 724 726 725 723 721 722 724 725 726 721 715 711 706 706 708 711 713 713 718 720 715 714 717 720 720 713 710 713 714 714 719 721 719 725 730 725 716 715 717 714 713 709 703 705 716 722 713 721 759 773 755 751 751 743 745 750 751 753 755 757 758 761 765 767 768 770
787 785 782 780 778 775 774 772 769 770 768 767 767 765 765 764 762 762 763 767 758 731 718 718 717 715 713 716 718 723 730 719 706 706 706 705 704 706 711 710 710 713 710 710 714 714 711 706 706 711 713 714 718 719 713 716 728 728 713 706 709 709 711 711 704 708 724 730 713 707 744 776 772 768 761 747 748 752 752 754 755 756 759 762 765 766 767 769
785 783 780 778 776 775 774 771 770 770 768 767 765 765 765 762 762 762 763 769 756 728 716 713 710 707 704 707 712 722 729 714 703 704 702 704 703 702 710 709 707 709 702 705 717 711 702 703 706 708 711 713 716 716 708 707 722 724 706 701 707 706 710 712 706 710 714 714 710 703 724 765 779 772 761 750 752 757 755 755 755 756 759 762 764 764 765 767
783 781 779 776 775 774 773 771 770 768 767 766 764 765 764 762 762 761 766 771 748 724 722 716 705 703 702 703 707 713 713 704 705 704 697 702 702 700 709 706 704 706 696 702 717 707 696 701 704 704 709 712 709 708 702 702 715 713 700 699 703 702 705 706 707 712 707 709 722 714 716 755 775 761 751 750 754 759 757 755 755 755 758 760 762 762 762 764
781 779 776 775 773 772 771 770 768 767 765 764 764 764 763 763 763 763 771 767 739 723 728 718 706 705 703 704 708 710 708 704 703 698 696 701 698 698 706 702 700 703 696 698 706 702 693 692 693 698 705 705 702 700 696 700 707 703 698 699 698 699 700 700 707 712 710 717 730 718 709 740 770 761 750 754 758 757 754 752 751 752 755 756 757 759 761 762
778 776 774 773 771 770 769 768 767 766 764 764 764 763 762 763 763 768 774 762 740 733 731 722 715 712 706 705 709 711 708 704 699 694 697 701 697 697 700 697 698 701 698 695 697 694 687 683 684 688 694 695 694 695 693 695 698 696 700 702 701 700 698 702 705 707 721 732 726 714 703 723 761 766 749 746 745 741 745 749 750 751 752 754 756 757 759 760
775 773 772 771 770 769 769 767 765 765 764 764 763 762 763 763 764 772 767 749 740 739 732 726 722 719 714 710 708 707 706 704 698 696 700 702 701 701 701 701 702 705 705 700 696 690 684 684 683 680 683 686 689 693 692 690 692 695 701 705 709 710 709 714 713 713 735 742 721 707 701 712 748 762 744 732 726 725 734 739 743 747 749 752 755 756 757 758
772 769 768 768 767 767 767 765 764 764 764 763 763 763 764 764 768 768 754 740 740 739 736 734 728 723 724 719 708 701 703 704 698 695 699 704 704 701 703 704 703 710 714 705 698 693 687 683 679 677 678 680 688 696 696 693 693 696 701 708 721 728 729 734 732 729 738 734 711 700 703 712 729 735 728 724 722 723 726 728 733 740 745 750 753 755 756 758
769 766 765 765 764 764 764 763 763 764 764 763 764 764 764 767 763 753 745 742 742 739 738 738 731 726 728 725 709 695 698 702 696 693 696 701 703 700 700 699 695 703 707 700 699 699 695 685 676 679 679 676 682 694 702 701 696 697 701 710 725 732 741 748 742 738 738 725 704 694 704 717 718 716 714 713 714 716 717 721 728 733 739 746 749 751 755 758
767 765 764 763 763 762 762 763 763 764 764 764 765 765 767 766 752 742 743 743 739 737 736 735 734 729 723 720 706 690 695 700 691 691 695 696 701 701 700 698 694 694 694 695 697 698 703 697 681 678 679 675 677 683 690 693 694 694 691 700 715 718 729 742 739 738 737 725 708 700 710 718 713 708 705 702 704 709 715 720 726 732 738 743 748 751 754 757
766 765 763 762 762 761 761 762 763 764 764 764 766 766 764 758 746 744 745 741 739 738 735 731 730 726 715 709 702 688 690 696 689 688 693 694 697 698 697 696 692 691 691 694 692 689 698 696 676 669 670 671 677 676 674 684 696 693 685 697 709 703 707 721 725 722 724 726 718 711 713 709 699 696 694 699 707 711 717 723 729 736 740 743 749 752 754 757
764 763 762 761 761 760 761 762 762 763 763 764 766 763 758 752 745 745 743 739 742 742 737 729 721 721 714 705 701 689 685 691 689 688 692 693 693 692 693 691 685 686 687 687 684 684 693 690 671 668 669 667 674 674 669 682 695 693 693 702 699 688 692 710 722 717 719 734 727 712 713 708 702 705 701 701 710 714 719 725 731 738 741 744 749 751 754 757
764 762 762 760 759 758 759 760 760 761 761 765 765 757 752 749 741 738 738 737 740 741 741 734 722 719 714 706 703 695 687 689 687 687 692 693 691 688 688 685 679 679 677 676 677 676 684 688 672 667 675 669 666 672 670 672 680 691 701 698 688 686 690 701 722 728 731 742 731 714 717 717 717 727 724 715 714 717 722 726 733 740 743 747 750 751 754 755
764 762 761 758 757 756 757 758 760 761 762 765 763 753 748 746 738 735 735 734 738 740 741 737 728 722 716 709 705 696 690 690 687 686 691 693 691 684 683 682 676 672 668 670 676 670 673 689 680 666 675 674 664 674 684 675 672 682 688 684 688 704 708 705 720 733 739 747 738 721 717 718 720 728 733 730 722 720 724 728 735 740 743 748 751 752 755 756
764 762 759 756 755 756 757 758 758 760 763 764 760 749 744 742 735 731 730 731 737 740 739 735 731 728 721 713 707 695 688 688 687 686 689 693 691 682 677 676 673 670 665 667 673 666 665 688 694 675 671 678 676 683 696 692 680 677 679 681 684 696 706 706 711 721 732 744 743 732 724 718 711 709 713 720 720 720 725 730 734 737 740 746 750 753 756 757
764 764 760 755 756 756 756 757 758 761 764 760 754 747 743 742 735 729 728 730 735 738 737 735 733 730 723 715 708 696 687 686 687 686 687 690 691 684 675 671 671 669 664 665 668 664 664 682 696 687 677 685 689 687 692 696 690 685 689 692 689 689 694 700 704 705 716 734 740 739 735 718 698 691 695 704 711 713 717 725 730 733 738 745 747 751 755 757
766 766 761 754 756 756 756 759 759 760 760 754 748 745 743 742 737 729 726 728 732 733 734 735 735 732 728 720 710 700 692 687 685 684 685 686 689 687 674 667 669 667 665 670 670 666 669 679 692 696 692 694 691 680 679 684 682 684 691 692 691 693 697 711 718 706 702 716 724 731 736 717 692 686 688 693 702 705 707 716 724 729 737 743 746 749 752 755
767 766 759 755 757 756 756 759 756 755 757 752 746 743 741 739 735 731 727 726 728 729 730 734 734 731 727 719 709 703 696 687 683 683 681 681 684 681 669 663 666 665 666 673 671 661 664 676 689 696 694 690 683 673 673 676 672 675 683 684 685 689 696 714 725 713 703 707 708 716 728 714 691 685 686 689 696 700 703 710 720 729 735 740 744 748 751 754
769 765 758 755 756 755 759 759 751 749 751 746 742 742 741 738 735 731 729 728 728 728 730 731 727 723 718 711 706 703 695 684 681 682 680 678 677 671 663 662 665 665 666 671 669 660 662 676 690 695 690 683 678 672 669 671 673 678 681 680 683 687 690 701 706 703 707 709 708 720 731 716 693 685 688 692 694 698 705 710 718 730 736 739 744 748 751 755
770 764 757 755 755 755 759 758 752 749 745 740 741 741 739 739 736 733 731 729 727 727 728 726 720 717 713 707 703 700 696 690 684 683 681 677 673 664 657 660 664 665 665 669 668 664 669 679 688 698 703 699 694 689 683 679 680 683 682 679 682 684 687 694 697 699 708 709 705 719 732 718 695 687 694 700 702 704 708 713 718 727 736 741 744 747 751 756
769 763 756 755 755 756 757 754 752 753 746 742 742 737 736 738 735 731 729 726 723 723 724 720 714 712 709 704 700 695 691 689 687 686 682 677 670 662 657 659 663 663 662 663 662 662 672 679 684 698 713 715 712 707 698 690 687 687 682 678 681 684 687 695 702 710 716 709 702 713 726 716 698 694 702 708 712 715 717 720 723 728 736 742 745 748 752 755
771 768 763 759 755 755 754 750 750 753 748 746 743 735 734 736 731 726 726 724 722 720 719 716 710 709 707 703 701 696 687 685 686 685 680 675 670 663 658 659 661 661 661 661 661 664 672 676 677 688 699 702 702 696 687 684 690 693 689 682 681 684 686 693 704 712 712 707 706 711 714 711 707 710 713 711 716 723 725 728 732 734 739 743 745 748 751 754
773 774 773 770 763 757 755 753 752 753 749 746 745 739 737 736 730 726 725 724 723 721 718 713 708 708 708 704 703 699 689 683 683 680 675 673 669 662 658 658 659 662 663 663 663 667 676 680 678 681 686 684 683 682 679 682 689 693 692 686 683 683 687 696 704 705 701 705 715 713 705 709 716 719 719 715 717 723 727 730 733 736 739 742 745 749 752 756
777 777 776 777 774 768 766 761 757 754 747 742 743 741 737 735 733 731 729 726 726 726 723 718 712 709 708 706 705 703 694 685 684 684 680 676 671 666 665 663 661 663 666 667 666 668 679 685 680 681 685 680 675 676 678 682 687 688 688 687 685 684 689 697 700 697 696 705 716 712 704 709 718 720 719 717 716 720 725 727 730 733 737 740 744 750 754 757
782 781 776 776 778 776 772 765 758 753 746 741 743 740 735 734 733 732 732 730 729 730 730 727 718 711 708 706 706 709 707 703 700 697 694 690 681 675 677 677 670 667 669 672 671 669 678 685 682 684 689 685 677 674 676 680 685 686 685 685 686 686 688 693 695 693 695 703 707 704 704 712 718 719 719 717 716 719 724 728 731 734 737 739 744 750 754 757
787 786 781 779 779 774 768 762 756 751 745 742 743 739 732 732 732 729 730 733 734 734 734 730 720 712 710 707 707 711 712 711 710 705 701 702 693 684 684 683 677 674 673 674 674 673 679 689 687 686 694 692 679 673 675 679 683 687 687 685 686 688 688 689 691 691 695 703 705 701 707 721 722 717 718 720 720 722 728 733 735 737 738 740 745 750 753 757
789 788 786 784 780 772 766 762 756 751 747 744 743 738 734 733 731 728 728 731 735 736 733 728 721 715 711 709 709 711 709 708 708 704 700 702 699 693 689 682 675 677 678 676 677 676 682 691 689 689 701 698 680 676 680 680 682 689 692 689 687 690 690 687 688 690 693 702 709 708 713 725 725 719 721 723 722 725 730 733 736 738 738 741 745 749 752 755
790 787 786 785 781 772 767 763 757 753 750 746 743 740 738 734 729 727 728 728 728 730 729 724 720 718 716 715 712 709 707 705 705 702 698 697 694 689 686 680 673 675 678 678 680 681 684 692 693 697 705 697 681 680 683 684 693 701 698 694 690 688 688 686 686 687 687 693 705 709 709 716 719 718 723 727 726 728 730 730 734 737 739 742 745 748 752 754